Time,TemperatureF,DewpointF,PressureIn,WindDirection,WindDirectionDegrees,WindSpeedMPH,WindSpeedGustMPH,Humidity,HourlyPrecipIn,Conditions,Clouds,dailyrainin,SoftwareType,DateUTC
2013-07-15 00:06:00,52.4,51.0,30.14,West,276,1.0,6.0,95,0.00,,,1.45,weatherlink.com 1.10,2013-07-15 06:06:00,
2013-07-15 00:21:00,52.3,51.0,30.14,West,276,0.0,4.0,95,0.00,,,0.00,weatherlink.com 1.10,2013-07-15 06:21:00,
2013-07-15 00:36:00,52.2,51.0,30.14,West,276,0.0,3.0,95,0.00,,,0.00,weatherlink.com 1.10,2013-07-15 06:36:00,
2013-07-15 00:51:00,52.3,51.0,30.14,West,276,0.0,2.0,95,0.00,,,0.00,weatherlink.com 1.10,2013-07-15 06:51:00,
2013-07-15 01:06:00,52.3,51.0,30.13,West,276,2.0,2.0,95,0.00,,,0.00,weatherlink.com 1.10,2013-07-15 07:06:00,
2013-07-15 01:21:00,52.3,51.0,30.14,West,276,0.0,0.0,95,0.00,,,0.00,weatherlink.com 1.10,2013-07-15 07:21:00,
2013-07-15 01:36:00,52.6,51.0,30.13,West,276,4.0,4.0,95,0.00,,,0.00,weatherlink.com 1.10,2013-07-15 07:36:00,
2013-07-15 01:51:00,52.5,51.0,30.13,West,276,3.0,4.0,95,0.00,,,0.00,weatherlink.com 1.10,2013-07-15 07:51:00,
2013-07-15 02:06:00,52.4,51.0,30.13,West,276,3.0,4.0,95,0.00,,,0.00,weatherlink.com 1.10,2013-07-15 08:06:00,
2013-07-15 02:21:00,52.4,51.0,30.13,West,271,2.0,6.0,95,0.05,,,0.05,weatherlink.com 1.10,2013-07-15 08:21:00,
2013-07-15 02:36:00,52.2,51.0,30.13,WNW,286,5.0,8.0,95,0.06,,,0.06,weatherlink.com 1.10,2013-07-15 08:36:00,
2013-07-15 02:51:00,52.1,51.0,30.13,WNW,286,4.0,4.0,96,0.06,,,0.06,weatherlink.com 1.10,2013-07-15 08:51:00,
2013-07-15 03:06:00,52.2,51.0,30.12,WSW,250,1.0,5.0,96,0.06,,,0.07,weatherlink.com 1.10,2013-07-15 09:06:00,
2013-07-15 03:21:00,52.3,51.0,30.12,WNW,291,2.0,5.0,96,0.01,,,0.07,weatherlink.com 1.10,2013-07-15 09:21:00,
2013-07-15 03:36:00,52.3,51.0,30.11,WNW,291,2.0,4.0,96,0.01,,,0.07,weatherlink.com 1.10,2013-07-15 09:36:00,
2013-07-15 03:52:00,52.4,51.0,30.11,WNW,291,0.0,4.0,96,0.01,,,0.07,weatherlink.com 1.10,2013-07-15 09:52:00,
2013-07-15 04:07:00,52.6,52.0,30.10,WNW,291,1.0,3.0,96,0.00,,,0.07,weatherlink.com 1.10,2013-07-15 10:07:00,
2013-07-15 04:22:00,52.6,52.0,30.11,WNW,291,0.0,2.0,96,0.00,,,0.07,weatherlink.com 1.10,2013-07-15 10:22:00,
2013-07-15 04:37:00,52.7,52.0,30.11,WNW,291,0.0,3.0,96,0.00,,,0.07,weatherlink.com 1.10,2013-07-15 10:37:00,
2013-07-15 04:52:00,52.7,52.0,30.11,WNW,291,0.0,1.0,96,0.00,,,0.07,weatherlink.com 1.10,2013-07-15 10:52:00,
2013-07-15 05:07:00,52.8,52.0,30.11,WNW,291,0.0,2.0,96,0.00,,,0.07,weatherlink.com 1.10,2013-07-15 11:07:00,
2013-07-15 05:22:00,52.8,52.0,30.11,WNW,291,0.0,1.0,96,0.00,,,0.07,weatherlink.com 1.10,2013-07-15 11:22:00,
2013-07-15 05:37:00,52.8,52.0,30.11,WNW,291,0.0,1.0,96,0.01,,,0.08,weatherlink.com 1.10,2013-07-15 11:37:00,
2013-07-15 05:52:00,52.8,52.0,30.11,WNW,291,1.0,4.0,96,0.01,,,0.08,weatherlink.com 1.10,2013-07-15 11:52:00,
2013-07-15 06:07:00,52.8,52.0,30.10,WNW,291,0.0,4.0,96,0.01,,,0.08,weatherlink.com 1.10,2013-07-15 12:07:00,
2013-07-15 06:22:00,52.8,52.0,30.10,WNW,291,0.0,3.0,96,0.01,,,0.08,weatherlink.com 1.10,2013-07-15 12:22:00,
2013-07-15 06:37:00,53.0,52.0,30.10,WNW,291,0.0,1.0,96,0.02,,,0.10,weatherlink.com 1.10,2013-07-15 12:37:00,
2013-07-15 06:52:00,53.2,52.0,30.11,WNW,291,0.0,0.0,96,0.06,,,0.14,weatherlink.com 1.10,2013-07-15 12:52:00,
2013-07-15 07:07:00,53.4,52.0,30.11,WNW,291,0.0,3.0,96,0.14,,,0.22,weatherlink.com 1.10,2013-07-15 13:07:00,
2013-07-15 07:22:00,53.5,52.0,30.11,WNW,298,0.0,0.0,96,0.14,,,0.22,weatherlink.com 1.10,2013-07-15 13:22:00,
2013-07-15 07:37:00,53.9,53.0,30.12,WNW,302,0.0,0.0,96,0.12,,,0.22,weatherlink.com 1.10,2013-07-15 13:37:00,
2013-07-15 07:52:00,54.5,54.0,30.11,WNW,302,0.0,0.0,97,0.07,,,0.22,weatherlink.com 1.10,2013-07-15 13:52:00,
2013-07-15 08:07:00,55.7,55.0,30.11,NW,321,1.0,3.0,97,0.00,,,0.22,weatherlink.com 1.10,2013-07-15 14:07:00,
2013-07-15 08:22:00,56.2,55.0,30.12,NE,38,0.0,3.0,97,0.00,,,0.22,weatherlink.com 1.10,2013-07-15 14:22:00,
2013-07-15 08:37:00,56.1,55.0,30.11,NE,39,0.0,2.0,96,0.00,,,0.22,weatherlink.com 1.10,2013-07-15 14:37:00,
2013-07-15 08:52:00,56.1,55.0,30.12,NE,39,0.0,1.0,97,0.00,,,0.22,weatherlink.com 1.10,2013-07-15 14:52:00,
2013-07-15 09:07:00,56.2,55.0,30.11,ENE,69,1.0,3.0,97,0.00,,,0.22,weatherlink.com 1.10,2013-07-15 15:07:00,
2013-07-15 09:37:00,56.4,56.0,30.11,ENE,69,1.0,2.0,97,0.00,,,0.22,weatherlink.com 1.10,2013-07-15 15:37:00,
2013-07-15 09:52:00,56.3,55.0,30.11,ENE,69,0.0,3.0,96,0.00,,,0.22,weatherlink.com 1.10,2013-07-15 15:52:00,
2013-07-15 10:07:00,56.6,56.0,30.11,ENE,69,0.0,1.0,96,0.00,,,0.22,weatherlink.com 1.10,2013-07-15 16:07:00,
2013-07-15 10:22:00,56.9,56.0,30.11,ENE,69,0.0,2.0,97,0.00,,,0.22,weatherlink.com 1.10,2013-07-15 16:22:00,
2013-07-15 10:52:00,58.4,57.0,30.10,East,82,1.0,3.0,96,0.00,,,0.22,weatherlink.com 1.10,2013-07-15 16:52:00,
2013-07-15 11:07:00,59.1,58.0,30.09,ENE,75,0.0,5.0,96,0.00,,,0.22,weatherlink.com 1.10,2013-07-15 17:07:00,
2013-07-15 11:37:00,60.6,59.0,30.09,NE,45,3.0,7.0,95,0.00,,,0.22,weatherlink.com 1.10,2013-07-15 17:37:00,
2013-07-15 11:53:00,60.7,59.0,30.08,ENE,57,1.0,8.0,94,0.00,,,0.22,weatherlink.com 1.10,2013-07-15 17:53:00,
2013-07-15 12:08:00,61.5,59.0,30.08,ENE,69,3.0,6.0,91,0.00,,,0.22,weatherlink.com 1.10,2013-07-15 18:08:00,
2013-07-15 12:23:00,60.3,57.0,30.08,NE,35,5.0,9.0,89,0.00,,,0.22,weatherlink.com 1.10,2013-07-15 18:23:00,
2013-07-15 12:38:00,60.2,58.0,30.07,NE,42,5.0,7.0,91,0.00,,,0.22,weatherlink.com 1.10,2013-07-15 18:38:00,
2013-07-15 13:23:00,66.0,60.0,30.06,SE,126,1.0,10.0,80,0.00,,,0.22,weatherlink.com 1.10,2013-07-15 19:23:00,
2013-07-15 13:38:00,66.7,59.0,30.06,ENE,67,4.0,9.0,76,0.00,,,0.22,weatherlink.com 1.10,2013-07-15 19:38:00,
2013-07-15 13:53:00,64.7,58.0,30.06,ENE,76,1.0,9.0,78,0.00,,,0.22,weatherlink.com 1.10,2013-07-15 19:53:00,
2013-07-15 14:08:00,63.9,58.0,30.06,ESE,113,9.0,13.0,80,0.00,,,0.22,weatherlink.com 1.10,2013-07-15 20:08:00,
2013-07-15 14:23:00,62.8,57.0,30.06,East,93,6.0,14.0,80,0.00,,,0.22,weatherlink.com 1.10,2013-07-15 20:23:00,
2013-07-15 14:38:00,61.7,57.0,30.06,ESE,111,3.0,11.0,84,0.00,,,0.22,weatherlink.com 1.10,2013-07-15 20:38:00,
2013-07-15 14:53:00,60.9,57.0,30.06,ESE,123,4.0,10.0,86,0.00,,,0.22,weatherlink.com 1.10,2013-07-15 20:53:00,
2013-07-15 15:08:00,60.4,57.0,30.06,SSW,201,4.0,9.0,87,0.00,,,0.22,weatherlink.com 1.10,2013-07-15 21:08:00,
2013-07-15 15:23:00,60.7,57.0,30.05,East,95,2.0,7.0,86,0.00,,,0.22,weatherlink.com 1.10,2013-07-15 21:23:00,
2013-07-15 15:38:00,61.2,56.0,30.05,ESE,123,0.0,5.0,84,0.00,,,0.22,weatherlink.com 1.10,2013-07-15 21:38:00,
2013-07-15 15:53:00,61.2,56.0,30.05,ESE,103,2.0,7.0,83,0.00,,,0.22,weatherlink.com 1.10,2013-07-15 21:53:00,
2013-07-15 16:08:00,62.0,56.0,30.05,East,91,3.0,8.0,82,0.00,,,0.22,weatherlink.com 1.10,2013-07-15 22:08:00,
2013-07-15 16:23:00,63.5,57.0,30.05,East,98,0.0,7.0,80,0.00,,,0.22,weatherlink.com 1.10,2013-07-15 22:23:00,
2013-07-15 16:38:00,64.0,56.0,30.05,ESE,115,2.0,8.0,74,0.00,,,0.22,weatherlink.com 1.10,2013-07-15 22:38:00,
2013-07-15 16:53:00,63.4,55.0,30.04,SE,126,3.0,7.0,75,0.00,,,0.22,weatherlink.com 1.10,2013-07-15 22:53:00,
2013-07-15 17:08:00,62.9,55.0,30.04,East,91,1.0,9.0,75,0.00,,,0.22,weatherlink.com 1.10,2013-07-15 23:08:00,
2013-07-15 17:23:00,62.2,53.0,30.04,East,82,3.0,8.0,72,0.00,,,0.22,weatherlink.com 1.10,2013-07-15 23:23:00,
2013-07-15 17:38:00,62.1,54.0,30.04,East,101,1.0,10.0,75,0.00,,,0.22,weatherlink.com 1.10,2013-07-15 23:38:00,
2013-07-15 18:08:00,61.2,53.0,30.04,ENE,70,1.0,5.0,75,0.00,,,0.22,weatherlink.com 1.10,2013-07-16 00:08:00,
2013-07-15 18:23:00,60.7,53.0,30.04,East,90,0.0,3.0,75,0.00,,,0.22,weatherlink.com 1.10,2013-07-16 00:23:00,
2013-07-15 18:38:00,60.5,53.0,30.04,East,98,0.0,3.0,75,0.00,,,0.22,weatherlink.com 1.10,2013-07-16 00:38:00,
2013-07-15 18:53:00,60.3,53.0,30.04,East,93,1.0,3.0,76,0.00,,,0.22,weatherlink.com 1.10,2013-07-16 00:53:00,
2013-07-15 19:08:00,60.0,52.0,30.04,East,93,2.0,3.0,76,0.00,,,0.22,weatherlink.com 1.10,2013-07-16 01:08:00,
2013-07-15 19:23:00,59.6,52.0,30.05,East,96,0.0,3.0,76,0.00,,,0.22,weatherlink.com 1.10,2013-07-16 01:23:00,
2013-07-15 19:38:00,59.3,52.0,30.05,ESE,105,1.0,3.0,76,0.00,,,0.22,weatherlink.com 1.10,2013-07-16 01:38:00,
2013-07-15 19:53:00,58.8,52.0,30.05,ESE,107,0.0,2.0,77,0.00,,,0.22,weatherlink.com 1.10,2013-07-16 01:53:00,
2013-07-15 20:08:00,58.4,52.0,30.06,SE,142,1.0,4.0,80,0.00,,,0.22,weatherlink.com 1.10,2013-07-16 02:08:00,
2013-07-15 20:23:00,57.4,51.0,30.06,SSW,192,2.0,6.0,80,0.00,,,0.22,weatherlink.com 1.10,2013-07-16 02:23:00,
2013-07-15 20:38:00,56.4,51.0,30.06,SSW,196,1.0,4.0,82,0.00,,,0.22,weatherlink.com 1.10,2013-07-16 02:38:00,
2013-07-15 21:08:00,54.7,50.0,30.08,SSW,210,0.0,2.0,85,0.00,,,0.22,weatherlink.com 1.10,2013-07-16 03:08:00,
2013-07-15 21:23:00,53.9,50.0,30.08,SSW,210,0.0,1.0,86,0.00,,,0.22,weatherlink.com 1.10,2013-07-16 03:23:00,
2013-07-15 21:53:00,52.4,49.0,30.08,SSW,211,2.0,3.0,89,0.00,,,0.22,weatherlink.com 1.10,2013-07-16 03:53:00,
2013-07-15 22:08:00,51.9,49.0,30.09,SSW,210,2.0,4.0,90,0.00,,,0.22,weatherlink.com 1.10,2013-07-16 04:08:00,
2013-07-15 22:23:00,51.7,49.0,30.08,SW,231,1.0,5.0,91,0.00,,,0.22,weatherlink.com 1.10,2013-07-16 04:23:00,
2013-07-15 22:38:00,51.6,49.0,30.09,SW,231,0.0,4.0,92,0.00,,,0.22,weatherlink.com 1.10,2013-07-16 04:38:00,
2013-07-15 22:53:00,51.4,49.0,30.08,SW,231,0.0,3.0,91,0.00,,,0.22,weatherlink.com 1.10,2013-07-16 04:53:00,
2013-07-15 23:08:00,51.1,49.0,30.08,SW,231,1.0,3.0,91,0.00,,,0.22,weatherlink.com 1.10,2013-07-16 05:08:00,
2013-07-15 23:23:00,50.9,49.0,30.08,SW,231,0.0,4.0,92,0.00,,,0.22,weatherlink.com 1.10,2013-07-16 05:23:00,
2013-07-15 23:38:00,50.7,49.0,30.08,SW,231,0.0,2.0,92,0.00,,,0.22,weatherlink.com 1.10,2013-07-16 05:38:00,
2013-07-15 23:53:00,50.1,48.0,30.09,SW,231,3.0,4.0,92,0.00,,,0.22,weatherlink.com 1.10,2013-07-16 05:53:00,